Time,TemperatureF,DewpointF,PressureIn,WindDirection,WindDirectionDegrees,WindSpeedMPH,WindSpeedGustMPH,Humidity,HourlyPrecipIn,Conditions,Clouds,dailyrainin,SoftwareType,DateUTC
2013-08-24 00:00:00,81.8,75.8,30.01,SE,134,2.5,4.6,82,0.00,FEW,BKN,0.00,WeatherDisplay:10.37,2013-08-24 04:00:00,
2013-08-24 00:01:00,81.8,75.8,30.01,SE,133,2.4,4.6,82,0.00,FEW,BKN,0.00,WeatherDisplay:10.37,2013-08-24 04:01:00,
2013-08-24 00:06:00,81.6,75.2,30.01,ESE,121,1.9,4.0,81,0.00,FEW,BKN,0.00,WeatherDisplay:10.37,2013-08-24 04:06:00,
2013-08-24 00:11:00,81.6,75.2,30.01,ESE,118,1.6,4.6,81,0.00,FEW,BKN,0.00,WeatherDisplay:10.37,2013-08-24 04:11:00,
2013-08-24 00:16:00,81.4,74.6,30.00,ESE,115,2.4,3.5,80,0.00,CLR,BKN,0.00,WeatherDisplay:10.37,2013-08-24 04:16:00,
2013-08-24 00:21:00,81.4,74.6,30.00,ESE,117,0.5,3.5,80,0.00,CLR,BKN,0.00,WeatherDisplay:10.37,2013-08-24 04:21:00,
2013-08-24 00:26:00,81.4,74.6,30.00,ESE,121,0.5,3.5,80,0.00,CLR,BKN,0.00,WeatherDisplay:10.37,2013-08-24 04:26:00,
2013-08-24 00:31:00,81.4,74.6,30.00,SE,130,2.0,3.5,80,0.00,CLR,BKN,0.00,WeatherDisplay:10.37,2013-08-24 04:31:00,
2013-08-24 00:36:00,81.4,74.6,30.00,SE,144,2.1,3.5,80,0.00,CLR,BKN,0.00,WeatherDisplay:10.37,2013-08-24 04:36:00,
2013-08-24 00:41:00,81.4,74.6,30.00,SE,142,2.9,4.6,80,0.00,CLR,BKN,0.00,WeatherDisplay:10.37,2013-08-24 04:41:00,
2013-08-24 00:46:00,81.2,74.8,30.01,SE,142,0.7,2.3,81,0.00,CLR,BKN,0.00,WeatherDisplay:10.37,2013-08-24 04:46:00,
2013-08-24 00:51:00,81.2,74.8,30.01,SE,142,1.3,2.3,81,0.00,CLR,BKN,0.00,WeatherDisplay:10.37,2013-08-24 04:51:00,
2013-08-24 00:56:00,81.2,75.2,30.01,SE,142,0.8,2.3,82,0.00,CLR,BKN,0.00,WeatherDisplay:10.37,2013-08-24 04:56:00,
2013-08-24 01:01:00,81.1,75.1,30.01,SE,142,0.5,2.3,82,0.00,CLR,BKN,0.00,WeatherDisplay:10.37,2013-08-24 05:01:00,
2013-08-24 01:06:00,81.1,75.4,30.01,SE,142,0.3,0.0,83,0.00,CLR,BKN,0.00,WeatherDisplay:10.37,2013-08-24 05:06:00,
2013-08-24 01:11:00,80.9,75.2,30.01,SE,142,0.0,1.0,83,0.00,CLR,BKN,0.00,WeatherDisplay:10.37,2013-08-24 05:11:00,
2013-08-24 01:16:00,80.7,75.4,30.01,SE,142,0.6,2.3,84,0.00,CLR,BKN,0.00,WeatherDisplay:10.37,2013-08-24 05:16:00,
2013-08-24 01:21:00,80.5,75.6,30.01,SE,142,0.2,2.3,85,0.00,CLR,BKN,0.00,WeatherDisplay:10.37,2013-08-24 05:21:00,
2013-08-24 01:26:00,80.5,75.6,30.01,SE,142,0.2,1.2,85,0.00,CLR,BKN,0.00,WeatherDisplay:10.37,2013-08-24 05:26:00,
2013-08-24 01:31:00,80.3,75.4,30.01,SE,142,0.0,0.0,85,0.00,CLR,BKN,0.00,WeatherDisplay:10.37,2013-08-24 05:31:00,
2013-08-24 01:36:00,80.1,75.5,30.01,SE,142,0.0,0.0,86,0.00,CLR,BKN,0.00,WeatherDisplay:10.37,2013-08-24 05:36:00,
2013-08-24 01:41:00,80.1,75.9,30.01,SE,142,0.0,0.0,87,0.00,CLR,BKN,0.00,WeatherDisplay:10.37,2013-08-24 05:41:00,
2013-08-24 01:46:00,79.9,75.7,30.01,SE,142,0.0,0.0,87,0.00,CLR,BKN,0.00,WeatherDisplay:10.37,2013-08-24 05:46:00,
2013-08-24 01:51:00,79.8,75.6,30.01,SE,142,0.0,0.0,87,0.00,CLR,BKN,0.00,WeatherDisplay:10.37,2013-08-24 05:51:00,
2013-08-24 01:56:00,79.6,75.4,30.01,SE,142,0.0,0.0,87,0.00,CLR,BKN,0.00,WeatherDisplay:10.37,2013-08-24 05:56:00,
2013-08-24 02:01:00,79.6,75.7,30.01,SE,142,0.0,0.0,88,0.00,CLR,BKN,0.00,WeatherDisplay:10.37,2013-08-24 06:01:00,
2013-08-24 02:06:00,79.4,75.9,30.01,SE,142,0.0,0.0,89,0.00,CLR,BKN,0.00,WeatherDisplay:10.37,2013-08-24 06:06:00,
2013-08-24 02:11:00,79.4,75.9,30.01,SE,142,0.0,0.0,89,0.00,CLR,BKN,0.00,WeatherDisplay:10.37,2013-08-24 06:11:00,
2013-08-24 02:17:00,79.2,76.0,30.01,SE,142,0.0,0.0,90,0.00,CLR,BKN,0.00,WeatherDisplay:10.37,2013-08-24 06:17:00,
2013-08-24 02:22:00,79.2,76.3,30.01,SE,142,0.0,0.0,91,0.00,CLR,BKN,0.00,WeatherDisplay:10.37,2013-08-24 06:22:00,
2013-08-24 02:27:00,79.0,76.5,30.01,SE,142,0.0,0.0,92,0.00,CLR,BKN,0.00,WeatherDisplay:10.37,2013-08-24 06:27:00,
2013-08-24 02:32:00,79.0,76.8,30.00,SE,142,0.0,0.0,93,0.00,CLR,BKN,0.00,WeatherDisplay:10.37,2013-08-24 06:32:00,
2013-08-24 02:37:00,78.8,76.9,30.00,SE,142,0.0,0.0,94,0.00,CLR,BKN,0.00,WeatherDisplay:10.37,2013-08-24 06:37:00,
2013-08-24 02:42:00,78.8,77.2,30.00,SE,142,0.0,0.0,95,0.00,CLR,BKN,0.00,WeatherDisplay:10.37,2013-08-24 06:42:00,
2013-08-24 02:47:00,78.6,77.0,30.00,SE,142,0.0,0.0,95,0.00,CLR,BKN,0.00,WeatherDisplay:10.37,2013-08-24 06:47:00,
2013-08-24 02:52:00,78.6,77.0,30.00,SE,142,0.0,0.0,95,0.00,CLR,BKN,0.00,WeatherDisplay:10.37,2013-08-24 06:52:00,
2013-08-24 02:57:00,78.6,77.4,30.00,SE,142,0.0,0.0,96,0.00,CLR,BKN,0.00,WeatherDisplay:10.37,2013-08-24 06:57:00,
2013-08-24 03:02:00,78.5,77.3,30.00,SE,142,0.0,0.0,96,0.00,CLR,BKN,0.00,WeatherDisplay:10.37,2013-08-24 07:02:00,
2013-08-24 03:07:00,78.5,77.6,30.00,SE,142,0.0,0.0,97,0.00,CLR,BKN,0.00,WeatherDisplay:10.37,2013-08-24 07:07:00,
2013-08-24 03:12:00,78.5,77.6,30.00,SE,142,0.0,0.0,97,0.00,CLR,BKN,0.00,WeatherDisplay:10.37,2013-08-24 07:12:00,
2013-08-24 03:17:00,78.5,77.9,30.00,SE,142,0.0,0.0,98,0.00,CLR,BKN,0.00,WeatherDisplay:10.37,2013-08-24 07:17:00,
2013-08-24 03:22:00,78.5,77.9,30.00,SE,142,0.0,0.0,98,0.00,CLR,BKN,0.00,WeatherDisplay:10.37,2013-08-24 07:22:00,
2013-08-24 03:27:00,78.3,77.7,30.00,SE,142,0.0,0.0,98,0.00,CLR,BKN,0.00,WeatherDisplay:10.37,2013-08-24 07:27:00,
2013-08-24 03:32:00,78.3,77.7,30.00,SE,142,0.0,0.0,98,0.00,CLR,BKN,0.00,WeatherDisplay:10.37,2013-08-24 07:32:00,
2013-08-24 03:37:00,78.1,77.5,30.00,SE,142,0.0,0.0,98,0.00,CLR,BKN,0.00,WeatherDisplay:10.37,2013-08-24 07:37:00,
2013-08-24 03:42:00,78.1,77.8,30.00,SE,142,0.0,0.0,99,0.00,CLR,BKN,0.00,WeatherDisplay:10.37,2013-08-24 07:42:00,
2013-08-24 03:47:00,77.9,77.6,30.00,SE,142,0.0,0.0,99,0.00,CLR,BKN,0.00,WeatherDisplay:10.37,2013-08-24 07:47:00,
2013-08-24 03:52:00,77.9,77.6,30.00,SE,142,0.0,0.0,99,0.00,CLR,BKN,0.00,WeatherDisplay:10.37,2013-08-24 07:52:00,
2013-08-24 03:57:00,77.7,77.4,30.00,SE,142,0.0,0.0,99,0.00,CLR,BKN,0.00,WeatherDisplay:10.37,2013-08-24 07:57:00,
2013-08-24 04:02:00,77.7,77.4,30.00,SE,142,0.0,0.0,99,0.00,CLR,BKN,0.00,WeatherDisplay:10.37,2013-08-24 08:02:00,
2013-08-24 04:07:00,77.6,77.3,30.00,SE,142,0.0,0.0,99,0.00,CLR,BKN,0.00,WeatherDisplay:10.37,2013-08-24 08:07:00,
2013-08-24 04:12:00,77.6,77.3,30.00,SE,142,0.0,0.0,99,0.00,CLR,BKN,0.00,WeatherDisplay:10.37,2013-08-24 08:12:00,
2013-08-24 04:17:00,77.4,77.1,30.00,SE,142,0.0,0.0,99,0.00,CLR,BKN,0.00,WeatherDisplay:10.37,2013-08-24 08:17:00,
2013-08-24 04:22:00,77.2,76.9,30.00,SE,142,0.0,0.0,99,0.00,CLR,BKN,0.00,WeatherDisplay:10.37,2013-08-24 08:22:00,
2013-08-24 04:27:00,77.0,76.7,30.00,SE,142,0.0,0.0,99,0.00,CLR,BKN,0.00,WeatherDisplay:10.37,2013-08-24 08:27:00,
2013-08-24 04:32:00,77.0,76.7,30.00,SE,142,0.0,0.0,99,0.00,CLR,BKN,0.00,WeatherDisplay:10.37,2013-08-24 08:32:00,
2013-08-24 04:37:00,76.8,76.5,30.00,SE,142,0.0,0.0,99,0.00,CLR,BKN,0.00,WeatherDisplay:10.37,2013-08-24 08:37:00,
2013-08-24 04:42:00,77.0,77.0,30.00,SE,142,0.0,0.0,100,0.00,CLR,BKN,0.00,WeatherDisplay:10.37,2013-08-24 08:42:00,
2013-08-24 04:47:00,76.8,76.8,30.00,SE,142,0.0,0.0,100,0.00,CLR,BKN,0.00,WeatherDisplay:10.37,2013-08-24 08:47:00,
2013-08-24 04:52:00,76.8,76.8,30.00,SE,142,0.0,0.0,100,0.00,CLR,BKN,0.00,WeatherDisplay:10.37,2013-08-24 08:52:00,
2013-08-24 04:57:00,76.8,76.8,30.00,SE,142,0.0,0.0,100,0.00,CLR,BKN,0.00,WeatherDisplay:10.37,2013-08-24 08:57:00,
2013-08-24 05:02:00,76.7,76.7,30.00,SE,142,0.0,0.0,100,0.00,CLR,BKN,0.00,WeatherDisplay:10.37,2013-08-24 09:02:00,
2013-08-24 05:07:00,76.7,76.7,30.00,SE,142,0.0,0.0,100,0.00,CLR,BKN,0.00,WeatherDisplay:10.37,2013-08-24 09:07:00,
2013-08-24 05:12:00,76.7,76.7,30.00,SE,142,0.0,0.0,100,0.00,CLR,BKN,0.00,WeatherDisplay:10.37,2013-08-24 09:12:00,
2013-08-24 05:17:00,76.7,76.7,30.00,SE,142,0.0,0.0,100,0.00,CLR,BKN,0.00,WeatherDisplay:10.37,2013-08-24 09:17:00,
2013-08-24 05:22:00,76.7,76.7,30.00,SE,142,0.0,0.0,100,0.00,CLR,BKN,0.00,WeatherDisplay:10.37,2013-08-24 09:22:00,
2013-08-24 05:27:00,76.7,76.7,30.00,SE,142,0.0,0.0,100,0.00,CLR,BKN,0.00,WeatherDisplay:10.37,2013-08-24 09:27:00,
2013-08-24 05:32:00,76.7,76.7,30.00,SE,142,0.0,0.0,100,0.00,CLR,BKN,0.00,WeatherDisplay:10.37,2013-08-24 09:32:00,
2013-08-24 05:37:00,76.7,76.7,30.00,SE,142,0.0,0.0,100,0.00,CLR,BKN,0.00,WeatherDisplay:10.37,2013-08-24 09:37:00,
2013-08-24 05:42:00,76.5,76.5,30.00,SE,142,0.0,0.0,100,0.00,CLR,BKN,0.00,WeatherDisplay:10.37,2013-08-24 09:42:00,
2013-08-24 05:47:00,76.5,76.5,30.00,SE,142,0.0,0.0,100,0.00,CLR,BKN,0.00,WeatherDisplay:10.37,2013-08-24 09:47:00,
2013-08-24 05:52:00,76.3,76.3,30.00,SE,142,0.0,0.0,100,0.00,CLR,BKN,0.00,WeatherDisplay:10.37,2013-08-24 09:52:00,
2013-08-24 05:57:00,76.3,76.3,30.00,SE,142,0.0,0.0,100,0.00,CLR,BKN,0.00,WeatherDisplay:10.37,2013-08-24 09:57:00,
2013-08-24 06:02:00,76.3,76.3,30.01,SE,142,0.0,0.0,100,0.00,CLR,BKN,0.00,WeatherDisplay:10.37,2013-08-24 10:02:00,
2013-08-24 06:07:00,76.1,76.1,30.01,SE,142,0.0,0.0,100,0.00,CLR,BKN,0.00,WeatherDisplay:10.37,2013-08-24 10:07:00,
2013-08-24 06:12:00,76.1,76.1,30.01,SE,142,0.0,0.0,100,0.00,CLR,BKN,0.00,WeatherDisplay:10.37,2013-08-24 10:12:00,
2013-08-24 06:17:00,76.1,76.1,30.01,SE,142,0.0,0.0,100,0.00,CLR,BKN,0.00,WeatherDisplay:10.37,2013-08-24 10:17:00,
2013-08-24 06:22:00,76.0,76.0,30.01,SE,142,0.0,0.0,100,0.00,CLR,BKN,0.00,WeatherDisplay:10.37,2013-08-24 10:22:00,
2013-08-24 06:27:00,76.0,76.0,30.01,SE,142,0.0,0.0,100,0.00,CLR,BKN,0.00,WeatherDisplay:10.37,2013-08-24 10:27:00,
2013-08-24 06:32:00,76.0,76.0,30.01,SE,142,0.0,0.0,100,0.00,CLR,BKN,0.00,WeatherDisplay:10.37,2013-08-24 10:32:00,
2013-08-24 06:37:00,76.0,76.0,30.01,SE,142,0.0,0.0,100,0.00,CLR,BKN,0.00,WeatherDisplay:10.37,2013-08-24 10:37:00,
2013-08-24 06:42:00,75.8,75.8,30.01,SE,142,0.0,0.0,100,0.00,CLR,BKN,0.00,WeatherDisplay:10.37,2013-08-24 10:42:00,
2013-08-24 06:47:00,75.8,75.8,30.02,SE,142,0.0,0.0,100,0.00,CLR,BKN,0.00,WeatherDisplay:10.37,2013-08-24 10:47:00,
2013-08-24 06:52:00,76.0,76.0,30.02,SE,142,0.0,0.0,100,0.00,CLR,BKN,0.00,WeatherDisplay:10.37,2013-08-24 10:52:00,
2013-08-24 06:57:00,76.0,76.0,30.02,SE,142,0.0,0.0,100,0.00,CLR,BKN,0.00,WeatherDisplay:10.37,2013-08-24 10:57:00,
2013-08-24 07:02:00,76.0,76.0,30.02,SE,142,0.0,0.0,100,0.00,CLR,BKN,0.00,WeatherDisplay:10.37,2013-08-24 11:02:00,
2013-08-24 07:07:00,76.0,76.0,30.02,SE,142,0.0,0.0,100,0.00,CLR,BKN,0.00,WeatherDisplay:10.37,2013-08-24 11:07:00,
2013-08-24 07:12:00,76.1,76.1,30.02,SE,142,0.0,0.0,100,0.00,CLR,BKN,0.00,WeatherDisplay:10.37,2013-08-24 11:12:00,
2013-08-24 07:17:00,76.1,76.1,30.03,SE,142,0.0,0.0,100,0.00,CLR,BKN,0.00,WeatherDisplay:10.37,2013-08-24 11:17:00,
2013-08-24 07:22:00,76.3,76.3,30.03,SE,142,0.0,0.0,100,0.00,CLR,BKN,0.00,WeatherDisplay:10.37,2013-08-24 11:22:00,
2013-08-24 07:27:00,76.3,76.3,30.03,SE,142,0.0,0.0,100,0.00,CLR,BKN,0.00,WeatherDisplay:10.37,2013-08-24 11:27:00,
2013-08-24 07:32:00,76.7,76.7,30.03,SE,142,0.0,0.0,100,0.00,CLR,BKN,0.00,WeatherDisplay:10.37,2013-08-24 11:32:00,
2013-08-24 07:37:00,76.8,76.8,30.03,SE,142,0.0,0.0,100,0.00,CLR,BKN,0.00,WeatherDisplay:10.37,2013-08-24 11:37:00,
2013-08-24 07:42:00,77.2,77.2,30.03,SE,142,0.0,0.0,100,0.00,CLR,BKN,0.00,WeatherDisplay:10.37,2013-08-24 11:42:00,
2013-08-24 07:47:00,77.6,77.6,30.04,SE,142,0.0,0.0,100,0.00,CLR,BKN,0.00,WeatherDisplay:10.37,2013-08-24 11:47:00,
2013-08-24 07:52:00,77.7,77.7,30.04,SE,142,0.0,0.0,100,0.00,CLR,BKN,0.00,WeatherDisplay:10.37,2013-08-24 11:52:00,
2013-08-24 07:57:00,78.1,78.1,30.04,SE,142,0.0,0.0,100,0.00,CLR,BKN,0.00,WeatherDisplay:10.37,2013-08-24 11:57:00,
2013-08-24 08:02:00,78.3,78.3,30.04,SE,142,0.0,0.0,100,0.00,CLR,BKN,0.00,WeatherDisplay:10.37,2013-08-24 12:02:00,
2013-08-24 08:07:00,78.8,78.8,30.04,SE,142,0.0,0.0,100,0.00,CLR,BKN,0.00,WeatherDisplay:10.37,2013-08-24 12:07:00,
2013-08-24 08:12:00,79.2,79.2,30.04,SE,142,0.0,0.0,100,0.00,CLR,BKN,0.00,WeatherDisplay:10.37,2013-08-24 12:12:00,
2013-08-24 08:17:00,79.9,79.9,30.05,SE,142,0.0,0.0,100,0.00,CLR,BKN,0.00,WeatherDisplay:10.37,2013-08-24 12:17:00,
2013-08-24 08:23:00,80.7,80.7,30.05,SE,142,0.0,0.0,100,0.00,CLR,BKN,0.00,WeatherDisplay:10.37,2013-08-24 12:23:00,
2013-08-24 08:28:00,81.4,81.4,30.05,SE,142,0.0,0.0,100,0.00,CLR,BKN,0.00,WeatherDisplay:10.37,2013-08-24 12:28:00,
2013-08-24 08:33:00,82.2,82.2,30.05,SSE,159,0.0,0.0,100,0.00,CLR,BKN,0.00,WeatherDisplay:10.37,2013-08-24 12:33:00,
2013-08-24 08:38:00,83.0,81.1,30.05,SSE,159,0.0,0.0,94,0.00,CLR,BKN,0.00,WeatherDisplay:10.37,2013-08-24 12:38:00,
2013-08-24 08:43:00,84.1,79.1,30.05,SSE,159,0.0,0.0,85,0.00,CLR,BKN,0.00,WeatherDisplay:10.37,2013-08-24 12:43:00,
2013-08-24 08:48:00,85.3,78.8,30.06,SSE,159,0.0,0.0,81,0.00,CLR,BKN,0.00,WeatherDisplay:10.37,2013-08-24 12:48:00,
2013-08-24 08:53:00,86.3,77.8,30.06,SSE,159,0.0,0.0,76,0.00,CLR,BKN,0.00,WeatherDisplay:10.37,2013-08-24 12:53:00,
2013-08-24 08:58:00,87.4,77.7,30.06,SSE,159,0.0,0.0,73,0.00,CLR,BKN,0.00,WeatherDisplay:10.37,2013-08-24 12:58:00,
2013-08-24 09:03:00,88.4,77.8,30.06,SE,144,0.0,0.0,71,0.00,FEW,BKN,0.00,WeatherDisplay:10.37,2013-08-24 13:03:00,
2013-08-24 09:08:00,89.3,77.8,30.06,South,181,0.0,0.0,69,0.00,FEW,BKN,0.00,WeatherDisplay:10.37,2013-08-24 13:08:00,
2013-08-24 09:13:00,89.9,77.9,30.06,South,184,0.0,0.0,68,0.00,FEW,BKN,0.00,WeatherDisplay:10.37,2013-08-24 13:13:00,
2013-08-24 09:18:00,90.1,77.2,30.07,South,182,0.0,0.0,66,0.00,FEW,BKN,0.00,WeatherDisplay:10.37,2013-08-24 13:18:00,
2013-08-24 09:23:00,90.5,77.6,30.07,South,182,0.0,0.0,66,0.00,FEW,BKN,0.00,WeatherDisplay:10.37,2013-08-24 13:23:00,
2013-08-24 09:28:00,90.3,77.8,30.07,South,182,0.0,0.0,67,0.00,FEW,BKN,0.00,WeatherDisplay:10.37,2013-08-24 13:28:00,
2013-08-24 09:33:00,90.7,77.3,30.07,ESE,109,0.0,0.0,65,0.00,FEW,BKN,0.00,WeatherDisplay:10.37,2013-08-24 13:33:00,
2013-08-24 09:38:00,90.7,76.8,30.07,SE,141,0.0,0.0,64,0.00,FEW,BKN,0.00,WeatherDisplay:10.37,2013-08-24 13:38:00,
2013-08-24 09:43:00,90.3,76.9,30.07,SSW,204,0.0,0.0,65,0.00,FEW,BKN,0.00,WeatherDisplay:10.37,2013-08-24 13:43:00,
2013-08-24 09:48:00,89.9,76.6,30.07,East,94,0.0,0.0,65,0.00,FEW,BKN,0.00,WeatherDisplay:10.37,2013-08-24 13:48:00,
2013-08-24 09:53:00,89.0,76.6,30.07,WSW,246,0.0,0.0,67,0.00,FEW,BKN,0.00,WeatherDisplay:10.37,2013-08-24 13:53:00,
2013-08-24 09:58:00,88.4,76.0,30.07,SE,129,0.0,0.0,67,0.00,FEW,BKN,0.00,WeatherDisplay:10.37,2013-08-24 13:58:00,
2013-08-24 10:03:00,89.0,76.6,30.08,South,181,0.0,0.0,67,0.00,SCT,BKN,0.00,WeatherDisplay:10.37,2013-08-24 14:03:00,
2013-08-24 10:08:00,89.9,76.6,30.08,South,182,0.0,0.0,65,0.00,SCT,BKN,0.00,WeatherDisplay:10.37,2013-08-24 14:08:00,
2013-08-24 10:13:00,89.9,77.0,30.08,SSW,203,0.0,0.0,66,0.00,SCT,BKN,0.00,WeatherDisplay:10.37,2013-08-24 14:13:00,
2013-08-24 10:18:00,89.9,76.1,30.08,SSW,205,0.0,0.0,64,0.00,SCT,BKN,0.00,WeatherDisplay:10.37,2013-08-24 14:18:00,
2013-08-24 10:23:00,90.3,74.5,30.08,SSE,167,0.0,0.0,60,0.00,SCT,BKN,0.00,WeatherDisplay:10.37,2013-08-24 14:23:00,
2013-08-24 10:28:00,91.6,76.2,30.08,SSE,167,0.0,0.0,61,0.00,SCT,BKN,0.00,WeatherDisplay:10.37,2013-08-24 14:28:00,
2013-08-24 10:33:00,91.6,74.7,30.09,SSW,209,0.0,0.0,58,0.00,SCT,BKN,0.00,WeatherDisplay:10.37,2013-08-24 14:33:00,
2013-08-24 10:38:00,91.8,75.9,30.09,SE,138,0.0,0.0,60,0.00,SCT,BKN,0.00,WeatherDisplay:10.37,2013-08-24 14:38:00,
2013-08-24 10:43:00,92.3,75.9,30.09,SW,215,0.0,0.0,59,0.00,SCT,BKN,0.00,WeatherDisplay:10.37,2013-08-24 14:43:00,
2013-08-24 10:48:00,91.6,75.2,30.09,South,178,0.0,0.0,59,0.00,SCT,BKN,0.00,WeatherDisplay:10.37,2013-08-24 14:48:00,
2013-08-24 10:53:00,91.6,75.2,30.09,South,175,0.0,0.0,59,0.00,SCT,BKN,0.00,WeatherDisplay:10.37,2013-08-24 14:53:00,
2013-08-24 10:58:00,91.6,75.2,30.09,SW,236,0.0,0.0,59,0.00,SCT,BKN,0.00,WeatherDisplay:10.37,2013-08-24 14:58:00,
2013-08-24 11:03:00,91.0,74.7,30.09,WSW,251,0.0,0.0,59,0.00,SCT,BKN,0.00,WeatherDisplay:10.37,2013-08-24 15:03:00,
2013-08-24 11:08:00,89.9,74.2,30.09,SE,128,0.0,0.0,60,0.00,SCT,BKN,0.00,WeatherDisplay:10.37,2013-08-24 15:08:00,
2013-08-24 11:13:00,89.7,74.9,30.09,SE,128,0.0,0.0,62,0.00,SCT,BKN,0.00,WeatherDisplay:10.37,2013-08-24 15:13:00,
2013-08-24 11:18:00,89.0,74.3,30.09,ENE,67,0.0,0.0,62,0.00,SCT,BKN,0.00,WeatherDisplay:10.37,2013-08-24 15:18:00,
2013-08-24 11:23:00,88.4,74.7,30.09,NE,38,0.0,0.0,64,0.00,SCT,BKN,0.00,WeatherDisplay:10.37,2013-08-24 15:23:00,
2013-08-24 11:28:00,88.4,76.0,30.09,NE,34,0.0,2.3,67,0.00,SCT,BKN,0.00,WeatherDisplay:10.37,2013-08-24 15:28:00,
2013-08-24 11:33:00,88.2,74.9,30.09,NE,34,0.0,0.0,65,0.00,SCT,BKN,0.00,WeatherDisplay:10.37,2013-08-24 15:33:00,
2013-08-24 11:38:00,87.6,75.3,30.09,NE,56,1.2,2.0,67,0.00,SCT,BKN,0.00,WeatherDisplay:10.37,2013-08-24 15:38:00,
2013-08-24 11:43:00,86.5,76.0,30.09,NE,41,3.9,8.1,71,0.00,SCT,BKN,0.00,WeatherDisplay:10.37,2013-08-24 15:43:00,
2013-08-24 11:48:00,85.7,75.6,30.09,NNE,30,0.5,4.6,72,0.00,SCT,BKN,0.00,WeatherDisplay:10.37,2013-08-24 15:48:00,
2013-08-24 11:53:00,85.5,75.4,30.09,WNW,303,1.8,3.5,72,0.00,SCT,BKN,0.00,WeatherDisplay:10.37,2013-08-24 15:53:00,
2013-08-24 11:58:00,85.5,75.9,30.09,NNE,22,0.0,0.0,73,0.00,SCT,BKN,0.00,WeatherDisplay:10.37,2013-08-24 15:58:00,
2013-08-24 12:03:00,85.5,77.1,30.08,NNE,30,0.0,3.5,76,0.00,SCT,BKN,0.00,WeatherDisplay:10.37,2013-08-24 16:03:00,
2013-08-24 12:08:00,85.7,76.9,30.08,NE,34,0.2,1.2,75,0.00,SCT,BKN,0.00,WeatherDisplay:10.37,2013-08-24 16:08:00,
2013-08-24 12:13:00,86.1,78.0,30.08,NE,34,0.1,3.5,77,0.00,CLR,BKN,0.00,WeatherDisplay:10.37,2013-08-24 16:13:00,
2013-08-24 12:18:00,86.5,78.4,30.08,NNE,32,2.9,5.8,77,0.00,CLR,BKN,0.00,WeatherDisplay:10.37,2013-08-24 16:18:00,
2013-08-24 12:23:00,87.0,77.3,30.08,NNE,28,2.1,5.8,73,0.00,CLR,BKN,0.00,WeatherDisplay:10.37,2013-08-24 16:23:00,
2013-08-24 12:28:00,87.4,77.7,30.08,NE,50,0.4,3.5,73,0.00,CLR,BKN,0.00,WeatherDisplay:10.37,2013-08-24 16:28:00,
2013-08-24 12:33:00,87.6,77.0,30.08,East,99,1.1,2.3,71,0.00,CLR,BKN,0.00,WeatherDisplay:10.37,2013-08-24 16:33:00,
2013-08-24 12:38:00,87.6,76.6,30.08,ENE,65,3.3,5.8,70,0.00,CLR,BKN,0.00,WeatherDisplay:10.37,2013-08-24 16:38:00,
2013-08-24 12:43:00,87.0,76.0,30.08,ENE,67,1.1,3.5,70,0.00,CLR,BKN,0.00,WeatherDisplay:10.37,2013-08-24 16:43:00,
2013-08-24 12:48:00,86.7,77.0,30.07,NE,54,4.6,4.6,73,0.00,CLR,BKN,0.00,WeatherDisplay:10.37,2013-08-24 16:48:00,
2013-08-24 12:53:00,86.7,76.6,30.07,NE,45,3.0,5.8,72,0.00,CLR,BKN,0.00,WeatherDisplay:10.37,2013-08-24 16:53:00,
2013-08-24 12:58:00,87.0,76.5,30.07,East,84,3.3,6.9,71,0.00,CLR,BKN,0.00,WeatherDisplay:10.37,2013-08-24 16:58:00,
2013-08-24 13:03:00,87.0,76.5,30.07,NE,53,4.1,5.8,71,0.00,SCT,BKN,0.00,WeatherDisplay:10.37,2013-08-24 17:03:00,
2013-08-24 13:08:00,86.7,77.0,30.07,ENE,57,3.8,5.0,73,0.00,SCT,BKN,0.00,WeatherDisplay:10.37,2013-08-24 17:08:00,
2013-08-24 13:13:00,86.7,75.7,30.07,East,80,2.9,5.8,70,0.00,SCT,BKN,0.00,WeatherDisplay:10.37,2013-08-24 17:13:00,
2013-08-24 13:18:00,86.7,76.6,30.07,NE,40,5.2,6.0,72,0.00,SCT,BKN,0.00,WeatherDisplay:10.37,2013-08-24 17:18:00,
2013-08-24 13:23:00,86.5,76.4,30.07,East,80,5.3,5.8,72,0.00,SCT,BKN,0.00,WeatherDisplay:10.37,2013-08-24 17:23:00,
2013-08-24 13:28:00,86.1,75.6,30.07,NE,46,3.5,4.6,71,0.00,SCT,BKN,0.00,WeatherDisplay:10.37,2013-08-24 17:28:00,
2013-08-24 13:33:00,86.1,75.2,30.07,ENE,67,4.9,5.8,70,0.00,SCT,BKN,0.00,WeatherDisplay:10.37,2013-08-24 17:33:00,
2013-08-24 13:38:00,86.1,75.2,30.07,ENE,69,2.6,4.0,70,0.00,SCT,BKN,0.00,WeatherDisplay:10.37,2013-08-24 17:38:00,
2013-08-24 13:43:00,86.1,74.3,30.07,East,80,2.5,6.9,68,0.00,SCT,BKN,0.00,WeatherDisplay:10.37,2013-08-24 17:43:00,
2013-08-24 13:48:00,86.3,74.9,30.07,East,85,3.7,5.8,69,0.00,SCT,BKN,0.00,WeatherDisplay:10.37,2013-08-24 17:48:00,
2013-08-24 13:53:00,86.1,74.7,30.07,ENE,64,4.4,6.9,69,0.00,SCT,BKN,0.00,WeatherDisplay:10.37,2013-08-24 17:53:00,
2013-08-24 13:58:00,85.9,74.5,30.07,ENE,77,5.3,6.9,69,0.00,SCT,BKN,0.00,WeatherDisplay:10.37,2013-08-24 17:58:00,
2013-08-24 14:03:00,85.9,75.4,30.07,ENE,59,4.6,6.9,71,0.00,CLR,BKN,0.00,WeatherDisplay:10.37,2013-08-24 18:03:00,
2013-08-24 14:09:00,85.9,75.0,30.07,East,88,0.9,2.3,70,0.00,CLR,BKN,0.00,WeatherDisplay:10.37,2013-08-24 18:09:00,
2013-08-24 14:14:00,86.1,75.2,30.07,East,93,2.8,3.5,70,0.00,CLR,BKN,0.00,WeatherDisplay:10.37,2013-08-24 18:14:00,
2013-08-24 14:19:00,86.3,74.0,30.07,ESE,116,2.7,5.0,67,0.00,CLR,BKN,0.00,WeatherDisplay:10.37,2013-08-24 18:19:00,
2013-08-24 14:24:00,86.3,74.0,30.07,East,98,2.5,5.8,67,0.00,CLR,BKN,0.00,WeatherDisplay:10.37,2013-08-24 18:24:00,
2013-08-24 14:29:00,86.3,73.1,30.07,ESE,110,2.7,5.8,65,0.00,CLR,BKN,0.00,WeatherDisplay:10.37,2013-08-24 18:29:00,
2013-08-24 14:34:00,86.3,73.6,30.06,East,98,3.2,5.8,66,0.00,CLR,BKN,0.00,WeatherDisplay:10.37,2013-08-24 18:34:00,
2013-08-24 14:39:00,85.9,73.7,30.06,ENE,72,3.6,5.0,67,0.00,CLR,BKN,0.00,WeatherDisplay:10.37,2013-08-24 18:39:00,
2013-08-24 14:44:00,85.7,73.9,30.06,East,84,4.8,10.4,68,0.00,CLR,BKN,0.00,WeatherDisplay:10.37,2013-08-24 18:44:00,
2013-08-24 14:49:00,85.5,74.2,30.05,East,93,6.4,11.5,69,0.00,CLR,BKN,0.00,WeatherDisplay:10.37,2013-08-24 18:49:00,
2013-08-24 14:54:00,85.3,74.0,30.05,ENE,69,4.8,6.9,69,0.00,CLR,BKN,0.00,WeatherDisplay:10.37,2013-08-24 18:54:00,
2013-08-24 14:59:00,85.3,74.4,30.05,East,84,5.1,7.0,70,0.00,CLR,BKN,0.00,WeatherDisplay:10.37,2013-08-24 18:59:00,
2013-08-24 15:04:00,85.5,75.4,30.04,East,92,3.2,7.0,72,0.00,CLR,BKN,0.00,WeatherDisplay:10.37,2013-08-24 19:04:00,
2013-08-24 15:09:00,85.9,75.4,30.04,East,96,4.1,5.8,71,0.00,CLR,BKN,0.00,WeatherDisplay:10.37,2013-08-24 19:09:00,
2013-08-24 15:14:00,85.9,75.4,30.04,East,88,5.6,11.5,71,0.00,CLR,BKN,0.00,WeatherDisplay:10.37,2013-08-24 19:14:00,
2013-08-24 15:19:00,85.3,75.2,30.05,ENE,65,6.2,11.5,72,0.00,CLR,BKN,0.00,WeatherDisplay:10.37,2013-08-24 19:19:00,
2013-08-24 15:24:00,84.9,75.7,30.05,ENE,71,5.8,10.4,74,0.00,CLR,BKN,0.00,WeatherDisplay:10.37,2013-08-24 19:24:00,
2013-08-24 15:29:00,84.5,75.3,30.05,East,87,7.7,10.4,74,0.00,CLR,BKN,0.00,WeatherDisplay:10.37,2013-08-24 19:29:00,
2013-08-24 15:30:00,84.5,75.7,30.05,ENE,70,9.0,14.0,75,0.00,CLR,BKN,0.00,WeatherDisplay:10.37,2013-08-24 19:30:00,
2013-08-24 15:35:00,84.3,75.9,30.05,ENE,70,10.0,14.0,76,0.00,CLR,BKN,0.00,WeatherDisplay:10.37,2013-08-24 19:35:00,
2013-08-24 15:40:00,84.3,76.3,30.05,ENE,68,7.0,12.0,77,0.00,CLR,BKN,0.00,WeatherDisplay:10.37,2013-08-24 19:40:00,
2013-08-24 15:45:00,84.3,75.5,30.05,ENE,68,7.0,16.0,75,0.00,CLR,BKN,0.00,WeatherDisplay:10.37,2013-08-24 19:45:00,
2013-08-24 15:50:00,84.1,75.7,30.05,ENE,68,9.0,15.0,76,0.00,CLR,BKN,0.00,WeatherDisplay:10.37,2013-08-24 19:50:00,
2013-08-24 16:03:00,84.1,75.7,30.05,ENE,64,5.0,12.0,76,0.00,CLR,BKN,0.00,WeatherDisplay:10.37,2013-08-24 20:03:00,
2013-08-24 16:08:00,81.6,75.9,30.06,NE,42,11.5,18.4,83,0.00,CLR,BKN,0.00,WeatherDisplay:10.37,2013-08-24 20:08:00,
2013-08-24 16:13:00,80.9,76.0,30.06,NNE,31,11.3,19.6,85,0.00,SCT,BKN,0.00,WeatherDisplay:10.37,2013-08-24 20:13:00,
2013-08-24 16:18:00,80.3,76.1,30.07,ENE,68,12.3,13.8,87,0.00,SCT,BKN,0.00,WeatherDisplay:10.37,2013-08-24 20:18:00,
2013-08-24 16:23:00,79.8,75.9,30.07,NE,41,10.1,17.0,88,0.00,SCT,BKN,0.00,WeatherDisplay:10.37,2013-08-24 20:23:00,
2013-08-24 16:28:00,79.6,75.4,30.07,NE,53,10.6,13.8,87,0.00,SCT,BKN,0.00,WeatherDisplay:10.37,2013-08-24 20:28:00,
2013-08-24 16:33:00,79.6,75.7,30.09,NE,51,14.9,19.6,88,0.00,SCT,BKN,0.00,WeatherDisplay:10.37,2013-08-24 20:33:00,
2013-08-24 16:39:00,79.6,77.1,30.09,NE,47,3.9,14.0,92,0.00,SCT,BKN,0.00,WeatherDisplay:10.37,2013-08-24 20:39:00,
2013-08-24 16:44:00,79.4,77.2,30.09,NNE,26,10.8,16.1,93,0.00,SCT,BKN,0.00,WeatherDisplay:10.37,2013-08-24 20:44:00,
2013-08-24 16:49:00,79.2,77.3,30.09,ENE,62,11.0,16.1,94,0.00,SCT,BKN,0.00,WeatherDisplay:10.37,2013-08-24 20:49:00,
2013-08-24 16:54:00,79.0,77.4,30.09,ENE,61,9.1,11.5,95,0.00,SCT,BKN,0.00,WeatherDisplay:10.37,2013-08-24 20:54:00,
2013-08-24 16:59:00,79.0,77.4,30.09,NE,48,8.7,12.7,95,0.00,SCT,BKN,0.00,WeatherDisplay:10.37,2013-08-24 20:59:00,
2013-08-24 17:04:00,79.0,77.1,30.09,NNE,27,8.8,15.0,94,0.00,SCT,BKN,0.00,WeatherDisplay:10.37,2013-08-24 21:04:00,
2013-08-24 17:09:00,79.0,77.4,30.09,NE,47,6.3,9.2,95,0.00,SCT,BKN,0.00,WeatherDisplay:10.37,2013-08-24 21:09:00,
2013-08-24 17:14:00,78.8,75.9,30.09,ENE,63,9.5,11.5,91,0.00,-RA,BKN,0.00,WeatherDisplay:10.37,2013-08-24 21:14:00,
2013-08-24 17:19:00,78.8,75.6,30.08,ENE,67,5.8,6.0,90,0.00,-RA,BKN,0.00,WeatherDisplay:10.37,2013-08-24 21:19:00,
2013-08-24 17:24:00,79.0,75.5,30.08,ENE,57,5.4,9.2,89,0.00,BKN,,0.00,WeatherDisplay:10.37,2013-08-24 21:24:00,
2013-08-24 17:29:00,79.0,75.1,30.08,NE,38,7.0,9.2,88,0.00,BKN,,0.00,WeatherDisplay:10.37,2013-08-24 21:29:00,
2013-08-24 17:34:00,79.0,75.5,30.08,NE,49,7.9,12.7,89,0.00,BKN,,0.00,WeatherDisplay:10.37,2013-08-24 21:34:00,
2013-08-24 17:39:00,79.0,76.1,30.08,NE,50,8.4,11.5,91,0.00,BKN,,0.00,WeatherDisplay:10.37,2013-08-24 21:39:00,
2013-08-24 17:44:00,78.6,75.8,30.08,ENE,63,4.1,6.9,91,0.00,BKN,,0.00,WeatherDisplay:10.37,2013-08-24 21:44:00,
2013-08-24 17:49:00,78.5,75.3,30.08,ENE,59,5.7,10.4,90,0.00,BKN,,0.00,WeatherDisplay:10.37,2013-08-24 21:49:00,
2013-08-24 17:54:00,78.6,75.1,30.08,NE,42,4.6,6.9,89,0.00,BKN,,0.00,WeatherDisplay:10.37,2013-08-24 21:54:00,
2013-08-24 17:59:00,78.8,75.3,30.08,ENE,65,5.3,10.4,89,0.00,BKN,,0.00,WeatherDisplay:10.37,2013-08-24 21:59:00,
2013-08-24 18:04:00,79.0,75.5,30.07,NE,50,4.0,6.9,89,0.00,BKN,,0.01,WeatherDisplay:10.37,2013-08-24 22:04:00,
2013-08-24 18:09:00,79.2,75.7,30.07,ENE,58,3.6,6.9,89,0.01,RA,BKN,0.01,WeatherDisplay:10.37,2013-08-24 22:09:00,
2013-08-24 18:14:00,79.0,75.8,30.07,NE,36,4.8,5.8,90,0.02,RA,BKN,0.02,WeatherDisplay:10.37,2013-08-24 22:14:00,
2013-08-24 18:19:00,78.8,76.3,30.06,ENE,67,4.1,5.8,92,0.02,RA,BKN,0.02,WeatherDisplay:10.37,2013-08-24 22:19:00,
2013-08-24 18:24:00,78.5,76.0,30.06,East,92,7.5,11.5,92,0.02,CLR,BKN,0.02,WeatherDisplay:10.37,2013-08-24 22:24:00,
2013-08-24 18:29:00,78.5,75.7,30.06,ENE,78,5.0,6.9,91,0.02,CLR,BKN,0.02,WeatherDisplay:10.37,2013-08-24 22:29:00,
2013-08-24 18:34:00,78.3,76.1,30.05,ENE,71,5.5,6.9,93,0.03,RA,BKN,0.03,WeatherDisplay:10.37,2013-08-24 22:34:00,
2013-08-24 18:39:00,78.1,75.9,30.05,ENE,70,4.3,9.0,93,0.03,RA,BKN,0.03,WeatherDisplay:10.37,2013-08-24 22:39:00,
2013-08-24 18:44:00,78.3,76.4,30.05,NE,49,3.0,5.8,94,0.03,CLR,BKN,0.03,WeatherDisplay:10.37,2013-08-24 22:44:00,
2013-08-24 18:49:00,78.1,75.6,30.04,ENE,65,4.0,4.6,92,0.03,CLR,BKN,0.03,WeatherDisplay:10.37,2013-08-24 22:49:00,
2013-08-24 18:54:00,78.1,74.6,30.04,East,83,4.0,4.0,89,0.03,CLR,BKN,0.03,WeatherDisplay:10.37,2013-08-24 22:54:00,
2013-08-24 18:59:00,78.5,74.0,30.04,ENE,69,3.6,6.9,86,0.03,CLR,BKN,0.03,WeatherDisplay:10.37,2013-08-24 22:59:00,
2013-08-24 19:04:00,78.8,73.9,30.04,East,80,2.6,6.9,85,0.03,CLR,BKN,0.03,WeatherDisplay:10.37,2013-08-24 23:04:00,
2013-08-24 19:09:00,78.8,73.6,30.04,ENE,78,3.7,5.0,84,0.02,CLR,BKN,0.03,WeatherDisplay:10.37,2013-08-24 23:09:00,
2013-08-24 19:14:00,79.0,73.4,30.04,ENE,60,5.0,10.4,83,0.01,CLR,BKN,0.03,WeatherDisplay:10.37,2013-08-24 23:14:00,
2013-08-24 19:19:00,79.2,73.6,30.05,ENE,74,5.8,6.9,83,0.01,CLR,BKN,0.03,WeatherDisplay:10.37,2013-08-24 23:19:00,
2013-08-24 19:24:00,79.4,74.5,30.05,East,88,3.7,8.1,85,0.01,CLR,BKN,0.03,WeatherDisplay:10.37,2013-08-24 23:24:00,
2013-08-24 19:29:00,79.4,74.8,30.05,ENE,62,5.5,8.1,86,0.01,CLR,BKN,0.03,WeatherDisplay:10.37,2013-08-24 23:29:00,
2013-08-24 19:34:00,79.4,74.5,30.05,East,87,4.3,6.0,85,0.00,CLR,BKN,0.03,WeatherDisplay:10.37,2013-08-24 23:34:00,
2013-08-24 19:39:00,79.4,74.1,30.05,ENE,74,5.9,9.2,84,0.00,CLR,BKN,0.03,WeatherDisplay:10.37,2013-08-24 23:39:00,
2013-08-24 19:44:00,79.6,74.0,30.05,ENE,63,6.3,11.5,83,0.00,CLR,BKN,0.03,WeatherDisplay:10.37,2013-08-24 23:44:00,
2013-08-24 19:49:00,79.6,74.0,30.05,ENE,57,5.2,9.0,83,0.00,CLR,BKN,0.03,WeatherDisplay:10.37,2013-08-24 23:49:00,
2013-08-24 19:54:00,79.6,74.7,30.05,ENE,61,6.6,10.4,85,0.00,CLR,BKN,0.03,WeatherDisplay:10.37,2013-08-24 23:54:00,
2013-08-24 19:59:00,79.8,75.6,30.05,ENE,65,5.9,10.4,87,0.00,BKN,,0.03,WeatherDisplay:10.37,2013-08-24 23:59:00,
2013-08-24 20:04:00,79.9,75.7,30.06,East,88,2.4,3.5,87,0.00,BKN,,0.03,WeatherDisplay:10.37,2013-08-25 00:04:00,
2013-08-24 20:09:00,79.9,75.7,30.06,ENE,75,4.7,5.8,87,0.00,BKN,,0.03,WeatherDisplay:10.37,2013-08-25 00:09:00,
2013-08-24 20:14:00,80.1,75.9,30.06,East,86,3.3,4.6,87,0.00,BKN,,0.03,WeatherDisplay:10.37,2013-08-25 00:14:00,
2013-08-24 20:19:00,80.1,75.9,30.06,NE,54,6.0,10.4,87,0.00,BKN,,0.03,WeatherDisplay:10.37,2013-08-25 00:19:00,
2013-08-24 20:24:00,80.3,76.1,30.06,ENE,57,2.8,5.0,87,0.00,BKN,,0.03,WeatherDisplay:10.37,2013-08-25 00:24:00,
2013-08-24 20:29:00,80.5,76.3,30.06,ENE,76,5.1,6.9,87,0.00,BKN,,0.03,WeatherDisplay:10.37,2013-08-25 00:29:00,
2013-08-24 20:34:00,80.3,76.1,30.06,ENE,78,3.3,4.6,87,0.00,BKN,,0.03,WeatherDisplay:10.37,2013-08-25 00:34:00,
2013-08-24 20:39:00,80.3,75.7,30.06,East,90,5.7,10.4,86,0.00,BKN,,0.03,WeatherDisplay:10.37,2013-08-25 00:39:00,
2013-08-24 20:44:00,80.5,75.9,30.06,ENE,62,3.4,4.6,86,0.00,BKN,,0.03,WeatherDisplay:10.37,2013-08-25 00:44:00,
2013-08-24 20:49:00,80.5,75.6,30.06,East,82,4.4,5.8,85,0.00,BKN,,0.03,WeatherDisplay:10.37,2013-08-25 00:49:00,
2013-08-24 20:54:00,80.3,75.4,30.06,East,86,3.9,6.9,85,0.00,BKN,,0.03,WeatherDisplay:10.37,2013-08-25 00:54:00,
2013-08-24 20:59:00,80.3,75.4,30.06,ESE,107,3.3,11.5,85,0.00,BKN,,0.03,WeatherDisplay:10.37,2013-08-25 00:59:00,
2013-08-24 21:04:00,80.3,75.4,30.06,ESE,105,4.4,5.8,85,0.00,BKN,,0.03,WeatherDisplay:10.37,2013-08-25 01:04:00,
2013-08-24 21:09:00,80.3,75.0,30.06,East,86,3.5,5.8,84,0.00,SCT,BKN,0.03,WeatherDisplay:10.37,2013-08-25 01:09:00,
2013-08-24 21:14:00,80.3,75.0,30.06,East,101,2.2,3.5,84,0.00,SCT,BKN,0.03,WeatherDisplay:10.37,2013-08-25 01:14:00,
2013-08-24 21:20:00,80.3,75.0,30.07,East,101,3.0,5.0,84,0.00,SCT,BKN,0.03,WeatherDisplay:10.37,2013-08-25 01:20:00,
2013-08-24 21:25:00,80.3,75.0,30.07,East,101,3.4,4.6,84,0.00,SCT,BKN,0.03,WeatherDisplay:10.37,2013-08-25 01:25:00,
2013-08-24 21:30:00,80.3,75.4,30.07,ESE,103,4.3,5.8,85,0.00,SCT,BKN,0.03,WeatherDisplay:10.37,2013-08-25 01:30:00,
2013-08-24 21:35:00,80.5,75.6,30.07,SE,132,2.9,5.8,85,0.00,SCT,BKN,0.03,WeatherDisplay:10.37,2013-08-25 01:35:00,
2013-08-24 21:40:00,80.3,75.0,30.07,SE,134,3.1,5.8,84,0.00,SCT,BKN,0.03,WeatherDisplay:10.37,2013-08-25 01:40:00,
2013-08-24 21:45:00,80.3,75.0,30.08,ESE,119,2.1,4.6,84,0.00,SCT,BKN,0.03,WeatherDisplay:10.37,2013-08-25 01:45:00,
2013-08-24 21:50:00,80.3,75.0,30.08,SE,130,1.4,3.5,84,0.00,SCT,BKN,0.03,WeatherDisplay:10.37,2013-08-25 01:50:00,
2013-08-24 21:55:00,80.3,75.0,30.08,SE,139,1.7,3.5,84,0.00,SCT,BKN,0.03,WeatherDisplay:10.37,2013-08-25 01:55:00,
2013-08-24 22:00:00,80.1,74.8,30.09,SE,138,0.5,3.5,84,0.00,SCT,BKN,0.03,WeatherDisplay:10.37,2013-08-25 02:00:00,
2013-08-24 22:05:00,80.1,74.8,30.09,ESE,120,1.1,2.3,84,0.00,SCT,BKN,0.03,WeatherDisplay:10.37,2013-08-25 02:05:00,
2013-08-24 22:10:00,80.1,74.8,30.09,SE,130,1.0,3.5,84,0.00,SCT,BKN,0.03,WeatherDisplay:10.37,2013-08-25 02:10:00,
2013-08-24 22:15:00,80.1,74.8,30.09,SE,130,0.1,3.5,84,0.00,SCT,BKN,0.03,WeatherDisplay:10.37,2013-08-25 02:15:00,
2013-08-24 22:20:00,79.9,74.6,30.09,SE,130,0.0,1.2,84,0.00,SCT,BKN,0.03,WeatherDisplay:10.37,2013-08-25 02:20:00,
2013-08-24 22:25:00,79.9,74.6,30.09,SE,130,0.0,0.0,84,0.00,SCT,BKN,0.03,WeatherDisplay:10.37,2013-08-25 02:25:00,
2013-08-24 22:30:00,79.8,74.5,30.10,SE,130,0.0,0.0,84,0.00,SCT,BKN,0.03,WeatherDisplay:10.37,2013-08-25 02:30:00,
2013-08-24 22:35:00,79.8,74.9,30.10,SE,130,0.1,1.2,85,0.00,SCT,BKN,0.03,WeatherDisplay:10.37,2013-08-25 02:35:00,
2013-08-24 22:40:00,79.8,74.9,30.10,SE,130,0.0,1.2,85,0.00,SCT,BKN,0.03,WeatherDisplay:10.37,2013-08-25 02:40:00,
2013-08-24 22:45:00,79.8,74.9,30.10,SE,130,0.0,1.2,85,0.00,SCT,BKN,0.03,WeatherDisplay:10.37,2013-08-25 02:45:00,
2013-08-24 22:50:00,79.8,74.9,30.10,SE,130,0.0,1.2,85,0.00,SCT,BKN,0.03,WeatherDisplay:10.37,2013-08-25 02:50:00,
2013-08-24 22:55:00,79.9,75.0,30.10,SE,126,0.2,0.0,85,0.00,SCT,BKN,0.03,WeatherDisplay:10.37,2013-08-25 02:55:00,
2013-08-24 23:00:00,79.8,74.9,30.10,SE,126,0.0,1.2,85,0.00,SCT,BKN,0.03,WeatherDisplay:10.37,2013-08-25 03:00:00,
2013-08-24 23:05:00,79.9,75.0,30.10,SE,126,0.4,1.0,85,0.00,SCT,BKN,0.03,WeatherDisplay:10.37,2013-08-25 03:05:00,
2013-08-24 23:10:00,79.9,75.0,30.10,SE,126,0.0,0.0,85,0.00,BKN,,0.03,WeatherDisplay:10.37,2013-08-25 03:10:00,
2013-08-24 23:15:00,79.8,75.6,30.10,SE,126,0.0,0.0,87,0.00,BKN,,0.03,WeatherDisplay:10.37,2013-08-25 03:15:00,
2013-08-24 23:20:00,79.6,75.4,30.10,SE,126,0.0,0.0,87,0.00,BKN,,0.03,WeatherDisplay:10.37,2013-08-25 03:20:00,
2013-08-24 23:25:00,79.6,75.4,30.10,SE,126,0.0,0.0,87,0.00,BKN,,0.03,WeatherDisplay:10.37,2013-08-25 03:25:00,
2013-08-24 23:30:00,79.4,75.2,30.09,SE,126,0.0,0.0,87,0.00,BKN,,0.03,WeatherDisplay:10.37,2013-08-25 03:30:00,
2013-08-24 23:35:00,79.2,75.0,30.09,SE,127,0.0,0.0,87,0.00,BKN,,0.03,WeatherDisplay:10.37,2013-08-25 03:35:00,
2013-08-24 23:40:00,79.0,74.8,30.09,SE,126,0.6,2.3,87,0.00,BKN,,0.03,WeatherDisplay:10.37,2013-08-25 03:40:00,
2013-08-24 23:45:00,79.0,75.1,30.09,SE,126,0.0,1.2,88,0.00,BKN,,0.03,WeatherDisplay:10.37,2013-08-25 03:45:00,
2013-08-24 23:50:00,79.0,74.8,30.09,SE,126,0.0,0.0,87,0.00,SCT,BKN,0.03,WeatherDisplay:10.37,2013-08-25 03:50:00,
2013-08-24 23:55:00,79.0,75.1,30.09,SE,126,0.0,0.0,88,0.00,SCT,BKN,0.03,WeatherDisplay:10.37,2013-08-25 03:55:00,